Time,TemperatureF,DewpointF,PressureIn,WindDirection,WindDirectionDegrees,WindSpeedMPH,WindSpeedGustMPH,Humidity,HourlyPrecipIn,Conditions,Clouds,dailyrainin,SoftwareType,DateUTC
2013-07-30 00:00:00,64.4,63.8,30.09,North,0,0.0,0.0,98,0.00,,,0.00,pywws,2013-07-30 04:00:00,
2013-07-30 00:01:00,64.2,63.3,30.09,North,0,0.0,0.0,97,0.00,,,0.00,pywws,2013-07-30 04:01:00,
2013-07-30 00:03:00,64.4,63.8,30.09,North,0,0.0,0.0,98,0.00,,,0.00,pywws,2013-07-30 04:03:00,
2013-07-30 00:04:00,64.2,63.3,30.09,North,0,0.0,0.0,97,0.00,,,0.00,pywws,2013-07-30 04:04:00,
2013-07-30 00:08:00,64.2,63.3,30.09,North,0,0.0,0.0,97,0.00,,,0.00,pywws,2013-07-30 04:08:00,
2013-07-30 00:09:00,64.0,63.2,30.09,North,0,0.0,0.0,97,0.00,,,0.00,pywws,2013-07-30 04:09:00,
2013-07-30 00:15:00,64.0,63.2,30.09,North,0,0.0,0.0,97,0.00,,,0.00,pywws,2013-07-30 04:15:00,
2013-07-30 00:21:00,64.0,63.2,30.09,North,0,0.0,0.0,97,0.00,,,0.00,pywws,2013-07-30 04:21:00,
2013-07-30 00:26:00,64.2,63.3,30.10,North,0,0.0,0.0,97,0.00,,,0.00,pywws,2013-07-30 04:26:00,
2013-07-30 00:33:00,64.2,63.3,30.10,North,0,0.0,0.0,97,0.00,,,0.00,pywws,2013-07-30 04:33:00,
2013-07-30 00:38:00,64.0,63.2,30.09,North,0,0.0,0.0,97,0.00,,,0.00,pywws,2013-07-30 04:38:00,
2013-07-30 00:44:00,64.0,63.2,30.10,North,0,0.0,0.0,97,0.00,,,0.00,pywws,2013-07-30 04:44:00,
2013-07-30 00:50:00,63.9,63.0,30.10,North,0,0.0,0.0,97,0.00,,,0.00,pywws,2013-07-30 04:50:00,
2013-07-30 00:57:00,64.0,63.2,30.09,North,0,0.0,0.0,97,0.00,,,0.00,pywws,2013-07-30 04:57:00,
2013-07-30 01:02:00,63.9,63.0,30.09,North,0,0.0,0.0,97,0.00,,,0.00,pywws,2013-07-30 05:02:00,
2013-07-30 01:08:00,63.7,62.8,30.09,North,0,0.0,0.0,97,0.00,,,0.00,pywws,2013-07-30 05:08:00,
2013-07-30 01:14:00,63.3,62.5,30.10,North,0,0.0,0.0,97,0.00,,,0.00,pywws,2013-07-30 05:14:00,
2013-07-30 01:20:00,63.3,62.5,30.09,North,0,0.0,0.0,97,0.00,,,0.00,pywws,2013-07-30 05:20:00,
2013-07-30 01:25:00,63.3,62.5,30.09,North,0,0.0,0.0,97,0.00,,,0.00,pywws,2013-07-30 05:25:00,
2013-07-30 01:31:00,63.1,62.3,30.09,North,0,0.0,0.0,97,0.00,,,0.00,pywws,2013-07-30 05:31:00,
2013-07-30 01:37:00,63.1,62.3,30.09,North,0,0.0,0.0,97,0.00,,,0.00,pywws,2013-07-30 05:37:00,
2013-07-30 01:42:00,62.8,61.9,30.09,North,0,0.0,0.0,97,0.00,,,0.00,pywws,2013-07-30 05:42:00,
2013-07-30 01:47:00,62.4,61.8,30.09,North,0,0.0,0.0,98,0.00,,,0.00,pywws,2013-07-30 05:47:00,
2013-07-30 01:53:00,62.2,61.7,30.09,NE,45,0.0,0.0,98,0.00,,,0.00,pywws,2013-07-30 05:53:00,
2013-07-30 01:59:00,62.2,61.7,30.09,NE,45,0.0,0.0,98,0.00,,,0.00,pywws,2013-07-30 05:59:00,
2013-07-30 02:05:00,62.1,61.5,30.09,NE,45,0.0,0.0,98,0.00,,,0.00,pywws,2013-07-30 06:05:00,
2013-07-30 02:10:00,62.2,61.7,30.09,NE,45,0.0,0.0,98,0.00,,,0.00,pywws,2013-07-30 06:10:00,
2013-07-30 02:16:00,62.6,61.7,30.09,NE,45,0.0,0.0,97,0.00,,,0.00,pywws,2013-07-30 06:16:00,
2013-07-30 02:21:00,62.8,61.6,30.09,NE,45,0.0,0.0,96,0.00,,,0.00,pywws,2013-07-30 06:21:00,
2013-07-30 02:28:00,62.8,61.3,30.09,NE,45,0.0,0.0,95,0.00,,,0.00,pywws,2013-07-30 06:28:00,
2013-07-30 02:33:00,63.0,60.9,30.09,North,0,0.0,0.0,93,0.00,,,0.00,pywws,2013-07-30 06:33:00,
2013-07-30 02:39:00,62.8,60.4,30.09,North,0,0.0,0.0,92,0.00,,,0.00,pywws,2013-07-30 06:39:00,
2013-07-30 02:45:00,62.6,59.9,30.09,North,0,0.0,0.0,91,0.00,,,0.00,pywws,2013-07-30 06:45:00,
2013-07-30 02:50:00,62.2,59.6,30.09,North,0,0.0,0.0,91,0.00,,,0.00,pywws,2013-07-30 06:50:00,
2013-07-30 02:57:00,62.2,59.3,30.09,North,0,0.0,0.0,90,0.00,,,0.00,pywws,2013-07-30 06:57:00,
2013-07-30 03:03:00,61.9,58.9,30.09,North,0,0.0,0.0,90,0.00,,,0.00,pywws,2013-07-30 07:03:00,
2013-07-30 03:09:00,61.5,58.6,30.09,North,0,0.0,0.0,90,0.00,,,0.00,pywws,2013-07-30 07:09:00,
2013-07-30 03:14:00,61.2,58.5,30.09,North,0,0.0,0.0,91,0.00,,,0.00,pywws,2013-07-30 07:14:00,
2013-07-30 03:20:00,61.2,58.8,30.09,North,0,0.0,0.0,92,0.00,,,0.00,pywws,2013-07-30 07:20:00,
2013-07-30 03:25:00,61.5,59.2,30.09,North,0,0.0,0.0,92,0.00,,,0.00,pywws,2013-07-30 07:25:00,
2013-07-30 03:31:00,61.2,58.8,30.09,North,0,0.0,0.0,92,0.00,,,0.00,pywws,2013-07-30 07:31:00,
2013-07-30 03:37:00,61.0,58.9,30.10,North,0,0.0,0.0,93,0.00,,,0.00,pywws,2013-07-30 07:37:00,
2013-07-30 03:43:00,60.8,58.5,30.09,North,0,0.0,0.0,92,0.00,,,0.00,pywws,2013-07-30 07:43:00,
2013-07-30 03:50:00,60.6,58.9,30.10,North,0,0.0,0.0,94,0.00,,,0.00,pywws,2013-07-30 07:50:00,
2013-07-30 03:56:00,60.4,58.4,30.09,North,0,0.0,0.0,93,0.00,,,0.00,pywws,2013-07-30 07:56:00,
2013-07-30 04:02:00,60.3,58.2,30.10,North,0,0.0,0.0,93,0.00,,,0.00,pywws,2013-07-30 08:02:00,
2013-07-30 04:08:00,60.1,58.0,30.09,North,0,0.0,0.0,93,0.00,,,0.00,pywws,2013-07-30 08:08:00,
2013-07-30 04:14:00,59.7,57.7,30.10,North,0,0.0,0.0,93,0.00,,,0.00,pywws,2013-07-30 08:14:00,
2013-07-30 04:19:00,59.4,57.3,30.10,North,0,0.0,0.0,93,0.00,,,0.00,pywws,2013-07-30 08:19:00,
2013-07-30 04:25:00,59.0,57.0,30.10,North,0,0.0,0.0,93,0.00,,,0.00,pywws,2013-07-30 08:25:00,
2013-07-30 04:31:00,58.8,57.1,30.11,North,0,0.0,0.0,94,0.00,,,0.00,pywws,2013-07-30 08:31:00,
2013-07-30 04:37:00,58.6,56.9,30.11,North,0,0.0,0.0,94,0.00,,,0.00,pywws,2013-07-30 08:37:00,
2013-07-30 04:42:00,58.5,56.7,30.11,North,0,0.0,0.0,94,0.00,,,0.00,pywws,2013-07-30 08:42:00,
2013-07-30 04:48:00,58.3,56.6,30.11,North,0,0.0,0.0,94,0.00,,,0.00,pywws,2013-07-30 08:48:00,
2013-07-30 04:53:00,58.3,56.9,30.11,North,0,0.0,0.0,95,0.00,,,0.00,pywws,2013-07-30 08:53:00,
2013-07-30 05:00:00,58.3,56.9,30.11,North,0,0.0,0.0,95,0.00,,,0.00,pywws,2013-07-30 09:00:00,
2013-07-30 05:05:00,58.3,56.9,30.11,North,0,0.0,0.0,95,0.00,,,0.00,pywws,2013-07-30 09:05:00,
2013-07-30 05:13:00,58.3,57.1,30.11,North,0,0.0,0.0,96,0.00,,,0.00,pywws,2013-07-30 09:13:00,
2013-07-30 05:18:00,58.3,57.1,30.11,North,0,0.0,0.0,96,0.00,,,0.00,pywws,2013-07-30 09:18:00,
2013-07-30 05:25:00,58.1,57.0,30.11,North,0,0.0,0.0,96,0.00,,,0.00,pywws,2013-07-30 09:25:00,
2013-07-30 05:30:00,58.1,57.0,30.11,North,0,0.0,0.0,96,0.00,,,0.00,pywws,2013-07-30 09:30:00,
2013-07-30 05:36:00,58.1,57.0,30.12,North,0,0.0,0.0,96,0.00,,,0.00,pywws,2013-07-30 09:36:00,
2013-07-30 05:42:00,58.1,57.0,30.11,North,0,0.0,0.0,96,0.00,,,0.00,pywws,2013-07-30 09:42:00,
2013-07-30 05:48:00,57.9,57.1,30.12,North,0,0.0,0.0,97,0.00,,,0.00,pywws,2013-07-30 09:48:00,
2013-07-30 05:53:00,57.9,57.1,30.11,North,0,0.0,0.0,97,0.00,,,0.00,pywws,2013-07-30 09:53:00,
2013-07-30 05:59:00,58.1,57.3,30.12,North,0,0.0,0.0,97,0.00,,,0.00,pywws,2013-07-30 09:59:00,
2013-07-30 06:05:00,58.3,57.4,30.12,North,0,0.0,0.0,97,0.00,,,0.00,pywws,2013-07-30 10:05:00,
2013-07-30 06:11:00,58.6,57.8,30.12,North,0,0.0,0.0,97,0.00,,,0.00,pywws,2013-07-30 10:11:00,
2013-07-30 06:18:00,59.0,57.9,30.12,North,0,0.0,0.0,96,0.00,,,0.00,pywws,2013-07-30 10:18:00,
2013-07-30 06:25:00,59.2,58.0,30.12,North,0,0.0,0.0,96,0.00,,,0.00,pywws,2013-07-30 10:25:00,
2013-07-30 06:32:00,59.5,58.4,30.12,North,0,0.0,0.0,96,0.00,,,0.00,pywws,2013-07-30 10:32:00,
2013-07-30 06:38:00,59.7,58.9,30.13,North,0,0.0,0.0,97,0.00,,,0.00,pywws,2013-07-30 10:38:00,
2013-07-30 06:45:00,60.3,59.4,30.12,North,0,0.0,0.0,97,0.00,,,0.00,pywws,2013-07-30 10:45:00,
2013-07-30 06:51:00,60.6,59.5,30.13,North,0,0.0,0.0,96,0.00,,,0.00,pywws,2013-07-30 10:51:00,
2013-07-30 06:56:00,61.0,59.5,30.13,North,0,0.0,0.0,95,0.00,,,0.00,pywws,2013-07-30 10:56:00,
2013-07-30 07:01:00,61.5,60.1,30.13,North,0,0.0,0.0,95,0.00,,,0.00,pywws,2013-07-30 11:01:00,
2013-07-30 07:07:00,62.1,60.6,30.13,North,0,0.0,0.0,95,0.00,,,0.00,pywws,2013-07-30 11:07:00,
2013-07-30 07:13:00,63.9,61.8,30.13,North,0,0.0,0.0,93,0.00,,,0.00,pywws,2013-07-30 11:13:00,
2013-07-30 07:18:00,67.1,64.4,30.12,North,0,0.0,0.0,91,0.00,,,0.00,pywws,2013-07-30 11:18:00,
2013-07-30 07:24:00,68.5,63.2,30.12,North,0,0.0,0.0,83,0.00,,,0.00,pywws,2013-07-30 11:24:00,
2013-07-30 07:29:00,69.8,60.7,30.12,North,0,0.0,0.0,73,0.00,,,0.00,pywws,2013-07-30 11:29:00,
2013-07-30 07:35:00,72.3,62.4,30.13,North,0,0.0,0.0,71,0.00,,,0.00,pywws,2013-07-30 11:35:00,
2013-07-30 07:41:00,72.3,59.9,30.13,NW,315,0.0,0.0,65,0.00,,,0.00,pywws,2013-07-30 11:41:00,
2013-07-30 07:46:00,72.5,59.2,30.13,South,180,0.0,0.0,63,0.00,,,0.00,pywws,2013-07-30 11:46:00,
2013-07-30 07:52:00,74.3,60.9,30.13,North,0,0.0,0.0,63,0.00,,,0.00,pywws,2013-07-30 11:52:00,
2013-07-30 07:58:00,72.5,58.3,30.13,NW,315,0.0,0.0,61,0.00,,,0.00,pywws,2013-07-30 11:58:00,
2013-07-30 08:03:00,73.4,59.1,30.13,North,0,0.0,0.0,61,0.00,,,0.00,pywws,2013-07-30 12:03:00,
2013-07-30 08:09:00,76.5,61.5,30.13,North,0,0.0,0.0,60,0.00,,,0.00,pywws,2013-07-30 12:09:00,
2013-07-30 08:14:00,75.0,59.2,30.13,SE,135,0.0,0.0,58,0.00,,,0.00,pywws,2013-07-30 12:14:00,
2013-07-30 08:20:00,75.0,59.7,30.13,NW,315,0.0,0.0,59,0.00,,,0.00,pywws,2013-07-30 12:20:00,
2013-07-30 08:25:00,74.8,59.5,30.13,South,180,0.0,0.0,59,0.00,,,0.00,pywws,2013-07-30 12:25:00,
2013-07-30 08:31:00,74.5,58.2,30.14,West,270,0.0,0.0,57,0.00,,,0.00,pywws,2013-07-30 12:31:00,
2013-07-30 08:37:00,73.6,57.4,30.14,North,0,0.0,0.0,57,0.00,,,0.00,pywws,2013-07-30 12:37:00,
2013-07-30 08:42:00,73.8,58.0,30.14,NW,315,0.0,0.0,58,0.00,,,0.00,pywws,2013-07-30 12:42:00,
2013-07-30 08:45:00,75.4,59.6,30.14,West,270,0.0,0.0,58,0.00,,,0.00,pywws,2013-07-30 12:45:00,
2013-07-30 08:50:00,73.2,56.1,30.14,North,0,0.0,0.0,55,0.00,,,0.00,pywws,2013-07-30 12:50:00,
2013-07-30 08:56:00,75.6,58.7,30.14,North,0,0.0,0.0,56,0.00,,,0.00,pywws,2013-07-30 12:56:00,
2013-07-30 09:01:00,74.5,58.2,30.14,West,270,0.0,0.0,57,0.00,,,0.00,pywws,2013-07-30 13:01:00,
2013-07-30 09:07:00,75.4,58.1,30.14,North,0,0.0,0.0,55,0.00,,,0.00,pywws,2013-07-30 13:07:00,
2013-07-30 09:13:00,73.4,56.7,30.14,NW,315,0.7,4.5,56,0.00,,,0.00,pywws,2013-07-30 13:13:00,
2013-07-30 09:18:00,75.2,59.4,30.14,SE,135,0.0,0.0,58,0.00,,,0.00,pywws,2013-07-30 13:18:00,
2013-07-30 09:25:00,74.7,58.9,30.14,North,0,0.0,0.7,58,0.00,,,0.00,pywws,2013-07-30 13:25:00,
2013-07-30 09:30:00,74.1,57.9,30.14,West,270,0.0,0.0,57,0.00,,,0.00,pywws,2013-07-30 13:30:00,
2013-07-30 09:36:00,73.6,56.9,30.14,North,0,0.0,0.7,56,0.00,,,0.00,pywws,2013-07-30 13:36:00,
2013-07-30 09:41:00,74.1,57.9,30.14,North,0,0.0,0.0,57,0.00,,,0.00,pywws,2013-07-30 13:41:00,
2013-07-30 09:47:00,75.7,58.4,30.14,South,180,0.0,0.0,55,0.00,,,0.00,pywws,2013-07-30 13:47:00,
2013-07-30 09:53:00,74.3,57.1,30.14,West,270,0.0,0.0,55,0.00,,,0.00,pywws,2013-07-30 13:53:00,
2013-07-30 09:58:00,74.5,57.7,30.13,West,270,0.0,0.0,56,0.00,,,0.00,pywws,2013-07-30 13:58:00,
2013-07-30 10:04:00,75.9,59.1,30.14,North,0,0.0,0.0,56,0.00,,,0.00,pywws,2013-07-30 14:04:00,
2013-07-30 10:09:00,75.7,58.9,30.14,SE,135,0.0,0.0,56,0.00,,,0.00,pywws,2013-07-30 14:09:00,
2013-07-30 10:15:00,74.3,57.1,30.14,North,0,0.0,0.0,55,0.00,,,0.00,pywws,2013-07-30 14:15:00,
2013-07-30 10:21:00,75.7,58.4,30.14,NW,315,0.0,0.0,55,0.00,,,0.00,pywws,2013-07-30 14:21:00,
2013-07-30 10:26:00,75.0,58.2,30.14,SE,135,0.0,0.7,56,0.00,,,0.00,pywws,2013-07-30 14:26:00,
2013-07-30 10:32:00,75.6,58.2,30.14,West,270,0.0,0.0,55,0.00,,,0.00,pywws,2013-07-30 14:32:00,
2013-07-30 10:37:00,75.2,57.4,30.14,South,180,0.0,0.0,54,0.00,,,0.00,pywws,2013-07-30 14:37:00,
2013-07-30 10:43:00,75.4,58.1,30.14,West,270,0.0,0.0,55,0.00,,,0.00,pywws,2013-07-30 14:43:00,
2013-07-30 10:49:00,75.7,58.4,30.14,West,270,0.0,1.6,55,0.00,,,0.00,pywws,2013-07-30 14:49:00,
2013-07-30 10:54:00,76.3,58.9,30.14,SE,135,0.0,0.7,55,0.00,,,0.00,pywws,2013-07-30 14:54:00,
2013-07-30 11:00:00,76.1,58.2,30.13,West,270,0.0,0.0,54,0.00,,,0.00,pywws,2013-07-30 15:00:00,
2013-07-30 11:05:00,77.4,59.9,30.14,NW,315,0.0,0.7,55,0.00,,,0.00,pywws,2013-07-30 15:05:00,
2013-07-30 11:11:00,76.5,57.5,30.14,North,0,0.0,0.0,52,0.00,,,0.00,pywws,2013-07-30 15:11:00,
2013-07-30 11:17:00,76.6,58.7,30.14,South,180,0.0,0.0,54,0.00,,,0.00,pywws,2013-07-30 15:17:00,
2013-07-30 11:23:00,77.2,58.2,30.13,North,0,0.0,3.1,52,0.00,,,0.00,pywws,2013-07-30 15:23:00,
2013-07-30 11:29:00,78.1,60.1,30.13,South,180,0.0,2.2,54,0.00,,,0.00,pywws,2013-07-30 15:29:00,
2013-07-30 11:34:00,78.6,59.0,30.14,West,270,0.0,0.0,51,0.00,,,0.00,pywws,2013-07-30 15:34:00,
2013-07-30 11:40:00,78.8,58.6,30.13,East,90,0.0,0.0,50,0.00,,,0.00,pywws,2013-07-30 15:40:00,
2013-07-30 11:45:00,79.3,58.5,30.13,South,180,0.0,0.7,49,0.00,,,0.00,pywws,2013-07-30 15:45:00,
2013-07-30 11:51:00,77.4,56.1,30.13,West,270,0.0,0.0,48,0.00,,,0.00,pywws,2013-07-30 15:51:00,
2013-07-30 11:57:00,79.2,58.3,30.13,West,270,0.0,0.7,49,0.00,,,0.00,pywws,2013-07-30 15:57:00,
2013-07-30 12:02:00,80.1,59.7,30.12,North,0,0.0,0.0,50,0.00,,,0.00,pywws,2013-07-30 16:02:00,
2013-07-30 12:08:00,80.1,60.8,30.12,West,270,0.0,0.0,52,0.00,,,0.00,pywws,2013-07-30 16:08:00,
2013-07-30 12:14:00,79.5,58.7,30.13,South,180,0.0,0.7,49,0.00,,,0.00,pywws,2013-07-30 16:14:00,
2013-07-30 12:19:00,78.4,57.1,30.13,SE,135,0.0,0.7,48,0.00,,,0.00,pywws,2013-07-30 16:19:00,
2013-07-30 12:25:00,79.2,57.8,30.12,North,0,0.0,0.0,48,0.00,,,0.00,pywws,2013-07-30 16:25:00,
2013-07-30 12:30:00,81.7,60.1,30.13,West,270,0.0,0.0,48,0.00,,,0.00,pywws,2013-07-30 16:30:00,
2013-07-30 12:36:00,81.0,56.3,30.13,West,270,0.0,0.0,43,0.00,,,0.00,pywws,2013-07-30 16:36:00,
2013-07-30 12:41:00,79.9,57.8,30.12,NW,315,0.0,0.0,47,0.00,,,0.00,pywws,2013-07-30 16:41:00,
2013-07-30 12:47:00,82.6,60.3,30.13,North,0,0.0,0.0,47,0.00,,,0.00,pywws,2013-07-30 16:47:00,
2013-07-30 12:53:00,78.3,54.5,30.12,West,270,0.0,0.0,44,0.00,,,0.00,pywws,2013-07-30 16:53:00,
2013-07-30 12:58:00,81.0,57.6,30.11,East,90,0.0,0.0,45,0.00,,,0.00,pywws,2013-07-30 16:58:00,
2013-07-30 13:04:00,80.1,56.8,30.12,West,270,0.0,0.0,45,0.00,,,0.00,pywws,2013-07-30 17:04:00,
2013-07-30 13:09:00,81.0,57.6,30.12,NW,315,0.0,0.7,45,0.00,,,0.00,pywws,2013-07-30 17:09:00,
2013-07-30 13:15:00,80.6,56.0,30.11,West,270,0.0,0.0,43,0.00,,,0.00,pywws,2013-07-30 17:15:00,
2013-07-30 13:21:00,82.9,60.6,30.11,West,270,0.0,1.6,47,0.00,,,0.00,pywws,2013-07-30 17:21:00,
2013-07-30 13:26:00,83.5,60.5,30.11,East,90,0.0,0.0,46,0.00,,,0.00,pywws,2013-07-30 17:26:00,
2013-07-30 13:32:00,82.4,59.5,30.11,SW,225,0.7,4.5,46,0.00,,,0.00,pywws,2013-07-30 17:32:00,
2013-07-30 13:37:00,79.5,55.7,30.11,NW,315,0.0,0.0,44,0.00,,,0.00,pywws,2013-07-30 17:37:00,
2013-07-30 13:43:00,81.7,61.2,30.12,West,270,0.0,0.0,50,0.00,,,0.00,pywws,2013-07-30 17:43:00,
2013-07-30 13:49:00,83.5,60.5,30.11,East,90,0.0,1.6,46,0.00,,,0.00,pywws,2013-07-30 17:49:00,
2013-07-30 13:54:00,80.2,56.3,30.11,West,270,0.0,0.7,44,0.00,,,0.00,pywws,2013-07-30 17:54:00,
2013-07-30 14:00:00,82.8,61.0,30.11,West,270,0.0,0.0,48,0.00,,,0.00,pywws,2013-07-30 18:00:00,
2013-07-30 14:05:00,83.8,61.4,30.11,West,270,0.0,0.0,47,0.00,,,0.00,pywws,2013-07-30 18:05:00,
2013-07-30 14:11:00,82.0,57.3,30.11,West,270,0.0,0.0,43,0.00,,,0.00,pywws,2013-07-30 18:11:00,
2013-07-30 14:17:00,84.0,60.4,30.11,North,0,0.0,0.0,45,0.00,,,0.00,pywws,2013-07-30 18:17:00,
2013-07-30 14:22:00,85.8,62.0,30.11,SE,135,0.0,0.0,45,0.00,,,0.00,pywws,2013-07-30 18:22:00,
2013-07-30 14:29:00,81.7,58.9,30.11,West,270,0.0,0.0,46,0.00,,,0.00,pywws,2013-07-30 18:29:00,
2013-07-30 14:34:00,81.3,57.9,30.11,South,180,0.0,0.0,45,0.00,,,0.00,pywws,2013-07-30 18:34:00,
2013-07-30 14:40:00,83.3,60.3,30.10,West,270,0.0,0.0,46,0.00,,,0.00,pywws,2013-07-30 18:40:00,
2013-07-30 14:45:00,84.0,61.6,30.10,West,270,0.0,0.0,47,0.00,,,0.00,pywws,2013-07-30 18:45:00,
2013-07-30 14:51:00,80.8,56.2,30.10,NE,45,0.0,0.0,43,0.00,,,0.00,pywws,2013-07-30 18:51:00,
2013-07-30 14:57:00,83.8,60.2,30.10,North,0,0.0,0.0,45,0.00,,,0.00,pywws,2013-07-30 18:57:00,
2013-07-30 15:02:00,84.4,60.7,30.10,West,270,0.0,2.2,45,0.00,,,0.00,pywws,2013-07-30 19:02:00,
2013-07-30 15:07:00,83.7,60.0,30.09,North,0,0.0,2.2,45,0.00,,,0.00,pywws,2013-07-30 19:07:00,
2013-07-30 15:13:00,85.3,61.5,30.09,North,0,0.0,2.2,45,0.00,,,0.00,pywws,2013-07-30 19:13:00,
2013-07-30 15:18:00,83.5,60.5,30.09,North,0,0.0,0.0,46,0.00,,,0.00,pywws,2013-07-30 19:18:00,
2013-07-30 15:24:00,80.1,56.8,30.09,West,270,0.0,0.0,45,0.00,,,0.00,pywws,2013-07-30 19:24:00,
2013-07-30 15:29:00,81.5,58.7,30.09,NW,315,0.0,0.0,46,0.00,,,0.00,pywws,2013-07-30 19:29:00,
2013-07-30 15:35:00,83.1,60.8,30.09,NW,315,0.0,0.0,47,0.00,,,0.00,pywws,2013-07-30 19:35:00,
2013-07-30 15:41:00,78.8,56.8,30.09,North,0,0.0,0.0,47,0.00,,,0.00,pywws,2013-07-30 19:41:00,
2013-07-30 15:46:00,82.9,61.8,30.09,West,270,0.0,0.0,49,0.00,,,0.00,pywws,2013-07-30 19:46:00,
2013-07-30 15:52:00,80.1,57.4,30.09,West,270,0.0,0.0,46,0.00,,,0.00,pywws,2013-07-30 19:52:00,
2013-07-30 15:57:00,82.4,59.5,30.08,NE,45,0.0,0.0,46,0.00,,,0.00,pywws,2013-07-30 19:57:00,
2013-07-30 16:03:00,81.1,57.1,30.08,West,270,0.0,0.0,44,0.00,,,0.00,pywws,2013-07-30 20:03:00,
2013-07-30 16:09:00,80.8,59.2,30.08,North,0,0.0,0.0,48,0.00,,,0.00,pywws,2013-07-30 20:09:00,
2013-07-30 16:14:00,78.8,56.2,30.08,NW,315,0.0,0.7,46,0.00,,,0.00,pywws,2013-07-30 20:14:00,
2013-07-30 16:20:00,80.4,59.5,30.08,South,180,0.0,0.0,49,0.00,,,0.00,pywws,2013-07-30 20:20:00,
2013-07-30 16:25:00,79.9,57.8,30.08,North,0,0.0,0.0,47,0.00,,,0.00,pywws,2013-07-30 20:25:00,
2013-07-30 16:31:00,79.5,58.1,30.08,SE,135,0.0,0.0,48,0.00,,,0.00,pywws,2013-07-30 20:31:00,
2013-07-30 16:37:00,81.1,57.8,30.09,North,0,0.0,0.0,45,0.00,,,0.00,pywws,2013-07-30 20:37:00,
2013-07-30 16:42:00,80.4,60.1,30.09,West,270,0.0,0.0,50,0.00,,,0.00,pywws,2013-07-30 20:42:00,
2013-07-30 16:48:00,81.9,58.4,30.09,North,0,0.0,0.0,45,0.00,,,0.00,pywws,2013-07-30 20:48:00,
2013-07-30 16:53:00,80.1,57.4,30.09,North,0,0.0,0.0,46,0.00,,,0.00,pywws,2013-07-30 20:53:00,
2013-07-30 16:59:00,78.6,59.0,30.09,North,0,0.0,0.0,51,0.00,,,0.00,pywws,2013-07-30 20:59:00,
2013-07-30 17:05:00,77.4,57.8,30.08,West,270,0.0,0.0,51,0.00,,,0.00,pywws,2013-07-30 21:05:00,
2013-07-30 17:10:00,78.1,59.0,30.09,North,0,0.0,0.0,52,0.00,,,0.00,pywws,2013-07-30 21:10:00,
2013-07-30 17:16:00,79.2,59.5,30.09,North,0,0.0,0.0,51,0.00,,,0.00,pywws,2013-07-30 21:16:00,
2013-07-30 17:22:00,81.0,58.2,30.09,West,270,0.0,0.0,46,0.00,,,0.00,pywws,2013-07-30 21:22:00,
2013-07-30 17:27:00,80.2,58.7,30.09,South,180,0.7,3.1,48,0.00,,,0.00,pywws,2013-07-30 21:27:00,
2013-07-30 17:33:00,80.6,57.9,30.09,West,270,0.0,1.6,46,0.00,,,0.00,pywws,2013-07-30 21:33:00,
2013-07-30 17:38:00,80.1,57.4,30.08,South,180,0.0,0.0,46,0.00,,,0.00,pywws,2013-07-30 21:38:00,
2013-07-30 17:44:00,78.6,56.1,30.08,West,270,0.0,0.0,46,0.00,,,0.00,pywws,2013-07-30 21:44:00,
2013-07-30 17:50:00,78.6,57.8,30.09,North,0,0.0,0.0,49,0.00,,,0.00,pywws,2013-07-30 21:50:00,
2013-07-30 17:55:00,78.3,56.9,30.09,East,90,0.0,0.0,48,0.00,,,0.00,pywws,2013-07-30 21:55:00,
2013-07-30 18:01:00,77.5,56.3,30.09,West,270,0.0,0.0,48,0.00,,,0.00,pywws,2013-07-30 22:01:00,
2013-07-30 18:06:00,77.0,56.9,30.09,East,90,0.0,0.0,50,0.00,,,0.00,pywws,2013-07-30 22:06:00,
2013-07-30 18:11:00,76.8,57.8,30.09,South,180,0.0,0.0,52,0.00,,,0.00,pywws,2013-07-30 22:11:00,
2013-07-30 18:17:00,76.5,58.6,30.09,South,180,0.0,0.7,54,0.00,,,0.00,pywws,2013-07-30 22:17:00,
2013-07-30 18:22:00,76.1,58.2,30.09,East,90,0.0,0.0,54,0.00,,,0.00,pywws,2013-07-30 22:22:00,
2013-07-30 18:27:00,76.1,58.7,30.09,West,270,0.0,0.0,55,0.00,,,0.00,pywws,2013-07-30 22:27:00,
2013-07-30 18:33:00,76.5,58.6,30.10,South,180,0.0,0.0,54,0.00,,,0.00,pywws,2013-07-30 22:33:00,
2013-07-30 18:38:00,76.5,59.1,30.10,West,270,0.0,0.0,55,0.00,,,0.00,pywws,2013-07-30 22:38:00,
2013-07-30 18:44:00,75.9,59.1,30.10,West,270,0.0,0.0,56,0.00,,,0.00,pywws,2013-07-30 22:44:00,
2013-07-30 18:50:00,75.7,58.4,30.10,West,270,0.0,0.0,55,0.00,,,0.00,pywws,2013-07-30 22:50:00,
2013-07-30 18:56:00,75.6,58.2,30.11,NW,315,0.0,0.0,55,0.00,,,0.00,pywws,2013-07-30 22:56:00,
2013-07-30 19:02:00,75.7,58.9,30.11,West,270,0.0,0.0,56,0.00,,,0.00,pywws,2013-07-30 23:02:00,
2013-07-30 19:08:00,75.4,59.6,30.11,West,270,0.0,0.0,58,0.00,,,0.00,pywws,2013-07-30 23:08:00,
2013-07-30 19:13:00,75.0,59.2,30.12,West,270,0.0,0.0,58,0.00,,,0.00,pywws,2013-07-30 23:13:00,
2013-07-30 19:19:00,74.3,58.6,30.11,West,270,0.0,0.0,58,0.00,,,0.00,pywws,2013-07-30 23:19:00,
2013-07-30 19:25:00,73.9,58.7,30.11,West,270,0.0,0.0,59,0.00,,,0.00,pywws,2013-07-30 23:25:00,
2013-07-30 19:30:00,73.0,58.8,30.11,West,270,0.0,0.0,61,0.00,,,0.00,pywws,2013-07-30 23:30:00,
2013-07-30 19:36:00,72.3,58.6,30.12,West,270,0.0,0.0,62,0.00,,,0.00,pywws,2013-07-30 23:36:00,
2013-07-30 19:42:00,71.6,57.9,30.12,West,270,0.0,0.0,62,0.00,,,0.00,pywws,2013-07-30 23:42:00,
2013-07-30 19:47:00,70.9,58.1,30.12,West,270,0.0,0.0,64,0.00,,,0.00,pywws,2013-07-30 23:47:00,
2013-07-30 19:53:00,70.5,58.2,30.12,West,270,0.0,0.0,65,0.00,,,0.00,pywws,2013-07-30 23:53:00,
2013-07-30 19:58:00,69.8,58.8,30.13,West,270,0.0,0.0,68,0.00,,,0.00,pywws,2013-07-30 23:58:00,
2013-07-30 20:05:00,69.4,60.4,30.13,North,0,0.0,0.0,73,0.00,,,0.00,pywws,2013-07-31 00:05:00,
2013-07-30 20:11:00,68.7,60.5,30.13,North,0,0.0,0.0,75,0.00,,,0.00,pywws,2013-07-31 00:11:00,
2013-07-30 20:17:00,68.2,60.3,30.13,North,0,0.0,0.0,76,0.00,,,0.00,pywws,2013-07-31 00:17:00,
2013-07-30 20:25:00,67.3,60.2,30.13,North,0,0.0,0.0,78,0.00,,,0.00,pywws,2013-07-31 00:25:00,
2013-07-30 20:31:00,66.7,59.7,30.13,North,0,0.0,0.0,78,0.00,,,0.00,pywws,2013-07-31 00:31:00,
2013-07-30 20:37:00,66.4,59.7,30.13,North,0,0.0,0.0,79,0.00,,,0.00,pywws,2013-07-31 00:37:00,
2013-07-30 20:43:00,66.4,59.7,30.14,North,0,0.0,0.0,79,0.00,,,0.00,pywws,2013-07-31 00:43:00,
2013-07-30 20:49:00,66.2,59.5,30.13,North,0,0.0,0.0,79,0.00,,,0.00,pywws,2013-07-31 00:49:00,
2013-07-30 20:54:00,66.0,60.4,30.14,North,0,0.0,0.0,82,0.00,,,0.00,pywws,2013-07-31 00:54:00,
2013-07-30 21:01:00,66.0,60.7,30.14,North,0,0.0,0.0,83,0.00,,,0.00,pywws,2013-07-31 01:01:00,
2013-07-30 21:06:00,66.0,60.4,30.14,North,0,0.0,0.0,82,0.00,,,0.00,pywws,2013-07-31 01:06:00,
2013-07-30 21:12:00,65.8,60.2,30.14,North,0,0.0,0.0,82,0.00,,,0.00,pywws,2013-07-31 01:12:00,
2013-07-30 21:17:00,65.7,60.4,30.14,North,0,0.0,0.0,83,0.00,,,0.00,pywws,2013-07-31 01:17:00,
2013-07-30 21:23:00,65.5,60.2,30.14,North,0,0.0,0.0,83,0.00,,,0.00,pywws,2013-07-31 01:23:00,
2013-07-30 21:29:00,65.7,60.7,30.14,North,0,0.0,0.0,84,0.00,,,0.00,pywws,2013-07-31 01:29:00,
2013-07-30 21:34:00,65.7,61.0,30.14,North,0,0.0,0.0,85,0.00,,,0.00,pywws,2013-07-31 01:34:00,
2013-07-30 21:40:00,65.8,61.2,30.14,North,0,0.0,0.0,85,0.00,,,0.00,pywws,2013-07-31 01:40:00,
2013-07-30 21:47:00,65.8,61.2,30.14,North,0,0.0,0.0,85,0.00,,,0.00,pywws,2013-07-31 01:47:00,
2013-07-30 21:53:00,65.7,61.4,30.14,North,0,0.0,0.0,86,0.00,,,0.00,pywws,2013-07-31 01:53:00,
2013-07-30 21:59:00,65.5,61.2,30.14,North,0,0.0,0.0,86,0.00,,,0.00,pywws,2013-07-31 01:59:00,
2013-07-30 22:05:00,65.3,61.0,30.14,North,0,0.0,0.0,86,0.00,,,0.00,pywws,2013-07-31 02:05:00,
2013-07-30 22:12:00,65.3,61.3,30.14,North,0,0.0,0.0,87,0.00,,,0.00,pywws,2013-07-31 02:12:00,
2013-07-30 22:17:00,65.1,61.1,30.14,North,0,0.0,0.0,87,0.00,,,0.00,pywws,2013-07-31 02:17:00,
2013-07-30 22:23:00,64.9,61.3,30.14,North,0,0.0,0.0,88,0.00,,,0.00,pywws,2013-07-31 02:23:00,
2013-07-30 22:29:00,64.6,60.9,30.14,North,0,0.0,0.0,88,0.00,,,0.00,pywws,2013-07-31 02:29:00,
2013-07-30 22:36:00,64.2,60.6,30.14,North,0,0.0,0.0,88,0.00,,,0.00,pywws,2013-07-31 02:36:00,
2013-07-30 22:42:00,64.2,60.9,30.14,North,0,0.0,0.0,89,0.00,,,0.00,pywws,2013-07-31 02:42:00,
2013-07-30 22:47:00,64.2,60.9,30.15,North,0,0.0,0.0,89,0.00,,,0.00,pywws,2013-07-31 02:47:00,
2013-07-30 22:53:00,63.9,60.2,30.15,North,0,0.0,0.0,88,0.00,,,0.00,pywws,2013-07-31 02:53:00,
2013-07-30 22:58:00,63.9,60.2,30.14,North,0,0.0,0.0,88,0.00,,,0.00,pywws,2013-07-31 02:58:00,
2013-07-30 23:11:00,63.5,59.9,30.14,North,0,0.0,0.0,88,0.00,,,0.00,pywws,2013-07-31 03:11:00,
2013-07-30 23:20:00,63.1,60.2,30.14,North,0,0.0,0.0,90,0.00,,,0.00,pywws,2013-07-31 03:20:00,
2013-07-30 23:26:00,62.6,59.9,30.14,North,0,0.0,0.0,91,0.00,,,0.00,pywws,2013-07-31 03:26:00,
2013-07-30 23:33:00,62.2,59.9,30.14,North,0,0.0,0.0,92,0.00,,,0.00,pywws,2013-07-31 03:33:00,
2013-07-30 23:39:00,62.1,59.7,30.14,North,0,0.0,0.0,92,0.00,,,0.00,pywws,2013-07-31 03:39:00,
2013-07-30 23:45:00,61.9,59.5,30.14,North,0,0.0,0.0,92,0.00,,,0.00,pywws,2013-07-31 03:45:00,
2013-07-30 23:50:00,61.9,59.5,30.14,North,0,0.0,0.0,92,0.00,,,0.00,pywws,2013-07-31 03:50:00,
2013-07-30 23:56:00,61.5,59.5,30.14,North,0,0.0,0.0,93,0.00,,,0.00,pywws,2013-07-31 03:56:00,